Volver al catálogo

STARLINK-37976

ActivoComunicacionesSSO
NORAD 69697·PAYLOAD·🇺🇸 United States

Lanzado Jun 25, 2026 desde Vandenberg Space Force Base

Loading…

Próximos Pases (próximas 24 horas)

TLE

ActualizadoSource: CelesTrak SupGP

Época: Sep 14, 2026, 22:53 UTC

1 69697C 26145W   26257.95395833  .00093344  00000+0  28980-2 0  2570
2 69697  97.2849 104.7605 0001701  91.3262  41.0398 15.33387590    13

Sigue STARLINK-37976 en tiempo real con AllMySat

Download on the App Store